Reflectivity
-20 -20 -20 -16 -20 -20 -20 -20 -20 -20 -20 -20 -0 6 19 11 6 -0 5 13 12 13 12 21 4 13 18 28 20 20 16 16 28 28 35 19 -16 5 14 11 -17 -20 -16 8
-20 -6 -20 -20 -20 -20 -20 -20 -20 -20 -20 -20 -20 -11 7 17 11 -3 -3 5 14 15 15 16 13 8 25 26 34 19 14 12 10 17 41 40 30 0 7 4 -14 -20 -20 -20
-5 -20 -0 -14 -20 -20 -20 -20 -20 -20 -20 -20 -20 -20 -20 2 13 -0 -9 -1 3 10 9 11 17 15 13 25 31 26 21 22 22 35 20 13 32 26 9 17 -4 -8 -5 -7
-20 -20 0 -20 -20 -20 -20 -20 -20 -16 -20 -20 -20 -20 -20 -20 -1 14 7 -2 -10 -6 3 3 10 16 17 17 22 33 21 28 22 24 33 18 26 30 31 27 19 15 4 3
-20 -7 -20 -20 -20 -20 -20 -20 -20 -20 -20 -20 -20 -20 -20 -20 -20 -6 11 4 1 -18 -19 -16 -13 15 16 15 21 24 23 21 29 24 23 10 17 16 29 38 18 -5 -20 -20
-20 6 6 -20 -20 -20 -20 -20 -20 -20 -20 -20 -20 -14 -20 -20 -20 -20 -20 -3 2 -2 -20 -20 -19 -20 -20 -6 19 21 20 23 24 24 19 25 15 8 12 19 3 25 -5 -20
-19 -20 -18 -20 -20 -20 -20 -20 -20 -20 -20 -20 -20 -20 -20 -20 -20 -20 -20 -20 -10 -9 -13 -20 -20 -20 -20 -20 -3 18 15 21 25 19 19 22 24 20 9 16 30 23 15 -6
-20 -20 -15 -20 -20 -20 -20 -20 -20 -20 -20 -20 -20 -20 -20 -20 -20 -20 -20 -20 -20 -18 0 -13 -7 -20 -20 -20 -20 -7 10 10 7 13 19 20 20 19 12 18 21 22 25 21
-20 -20 -20 -20 -20 -20 -20 -20 -20 -20 -20 -20 -20 -20 -20 -20 -20 -20 -20 -20 -20 -20 -20 -20 -20 -18 -19 -20 -20 -20 -20 -20 10 1 4 5 5 6 -0 -6 12 15 4 -7
-20 -20 -20 -20 -20 -20 -20 -20 -20 -20 -20 -20 -20 -20 -20 -20 -20 -20 -20 -20 -20 -20 -20 -20 -20 -20 -20 -20 -20 -20 -20 -20 -20 -20 -18 -13 -11 1 8 -6 -4 7 12 13
-20 -20 -20 -20 -20 -20 -20 -20 -20 -20 -20 -20 -20 -20 -20 -20 -20 -20 -20 -20 -20 -20 -20 -20 -20 -20 -20 -20 -20 -20 -20 -20 -20 -20 -20 -20 -20 -20 -20 -20 -20 -20 8 8
-20 -20 -20 -20 -20 -20 -20 -20 -20 -20 -20 -20 -20 -20 -20 -20 -20 -20 -20 -20 -20 -20 -20 -20 -20 -20 -20 -20 -20 -20 -20 -20 -20 -20 -20 -20 -20 -20 -20 -20 -20 -20 -20 -17
-20 -20 -20 -20 -20 -20 -20 -20 -20 -20 -20 -20 -20 -20 -20 -20 -20 -20 -20 -20 -20 -20 -20 -20 -20 -20 -20 -20 -20 -20 -20 -20 -20 -20 -20 -20 -20 -20 -20 -20 -20 -20 -20 -20
-20 -20 -20 -20 -20 -20 -20 -20 -20 -20 -20 -20 -20 -20 -20 -20 -20 -20 -20 -20 -20 -20 -20 -20 -20 -20 -20 -20 -20 -20 -20 -20 -20 -20 -20 -20 -20 -20 -20 -20 -20 -20 -20 -20
-20 -20 -20 -20 -20 -20 -20 -20 -20 -20 -20 -20 -20 -20 -20 -20 -20 -20 -20 -20 -20 -20 -20 -20 -20 -20 -20 -20 -20 -20 -20 -20 -20 -20 -20 -20 -20 -20 -20 -20 -20 -20 -20 -20
-20 -20 -20 -20 -20 -20 -20 -20 -20 -20 -20 -20 -20 -20 -20 -20 -20 -20 -20 -20 -20 -20 -20 -20 -20 -20 -20 -20 -20 -20 -20 -20 -15 -20 -20 -20 -20 -20 -20 -20 -20 -20 -20 -20
-20 -20 -20 -20 -20 -20 -20 -20 -20 -20 -20 -20 -20 -20 -20 -20 -20 -20 -20 -20 -20 -20 -20 -20 -20 -20 -20 -20 -20 -20 -20 -20 -20 -18 -20 -20 -20 -20 -20 -20 -20 -20 -20 -20
-20 -20 -20 -20 -20 -20 -20 -20 -20 -20 -20 -20 -20 -20 -20 -20 -20 -20 -20 -20 -20 -20 -20 -20 -20 -20 -20 -20 -20 -20 -20 -20 -20 -20 -20 -20 -20 -20 -20 -20 -20 -20 -20 -20
-20 -20 -20 -20 -20 -20 -20 -20 -20 -20 -20 -20 -20 -20 -20 -20 -20 -20 -20 -20 -20 -20 -20 -20 -20 -13 -20 -20 -6 -20 -20 -20 -20 -13 -19 2 -14 -20 -20 -20 -20 -20 -20 -20
-20 -20 -20 -20 -20 -20 -15 -20 -20 -20 -20 -20 -20 -20 -20 -20 -20 -20 -20 -20 -20 -20 -20 -20 -20 -20 -20 -20 -17 -20 -17 -8 -8 -15 1 -0 -8 -20 -20 -20 -20 -20 -20 -20
-20 -20 -20 -20 -20 -20 -8 -20 -20 -20 -20 -20 -20 -20 -20 -20 -20 -20 -20 -20 -20 -20 -18 -18 -18 -5 -18 -1 4 -20 -20 -20 -6 2 5 -20 -20 3 -20 -20 -20 -20 -20 -20
-20 -20 -20 -20 -20 -20 -20 -20 -20 -20 -20 -20 -20 -20 -20 -20 -20 -20 -20 -20 -20 -20 -14 -20 -20 -11 -11 4 -15 -20 -20 -20 -20 -20 -20 -20 -20 -20 -20 -20 -20 -20 -20 -20
-20 -20 -20 -20 -20 -20 -20 -20 -20 -20 -20 -20 -20 -20 -20 -20 -20 -20 -20 -20 -20 -20 -20 -20 -14 3 7 9 7 8 -9 -10 -18 -10 -5 -11 -20 -20 -20 -20 -20 -20 -20 -20
-20 -20 -20 -20 -20 -20 -20 -20 -20 -20 -20 -20 -20 -20 -20 -20 -20 -20 -20 -19 -4 -13 -20 -20 -19 5 7 6 -18 -20 -20 -20 -20 -20 -20 -20 -20 -20 -20 -20 -20 -20 -20 -20
-20 -20 -20 -20 -20 -20 -20 -20 -20 -20 -20 -20 -20 -20 -20 -20 -20 -20 -20 -20 -20 -15 -20 -20 -1 4 5 -10 -20 -20 -20 -20 -20 -20 -20 -20 -20 -20 -20 -20 -20 -20 -20 -20
-20 -20 -20 -20 -20 -20 -20 -20 -20 -20 -20 -20 -20 -20 -20 -20 -20 -20 -20 -20 -20 -20 -20 -20 -20 -20 -20 -20 -20 -20 -20 -20 -20 -20 -20 -20 -20 -8 -18 -9 -20 -20 -20 -20
-20 -20 -20 -20 -20 -20 -20 -20 -20 -20 -20 -20 -20 -20 -20 -20 -20 -8 -5 -20 -20 -20 -20 -20 -20 -20 -20 -20 -20 -20 -20 -20 -20 -20 -20 -20 -20 -20 -20 -20 -20 -20 -20 -20
Wind_Speed
5 6 8 5 6 7 7 7 4 3 4 5 5 6 9 10 11 12 13 14 13 13 10 12 10 12 11 11 11 14 11 11 12 9 10 8 9 9 9 8 6 4 5 5
11 9 8 8 7 7 4 6 2 2 2 3 1 2 6 10 12 12 12 13 13 12 12 11 12 12 10 10 8 12 11 11 11 10 7 7 10 9 10 8 7 6 5 4
4 4 9 3 3 5 2 2 2 3 2 4 4 5 5 6 8 10 11 11 12 11 11 11 10 9 8 8 11 9 11 10 11 12 11 11 9 10 11 8 7 6 6 5
5 9 3 2 4 3 5 3 3 2 3 2 4 3 2 3 5 5 7 8 9 9 10 9 8 10 9 8 7 6 9 11 11 10 12 12 10 9 10 8 8 5 4 4
1 5 3 4 4 3 3 0 3 4 5 4 6 4 2 4 3 4 4 3 3 6 8 8 9 10 6 8 9 12 9 9 9 9 7 9 9 10 7 7 4 6 5 6
4 4 4 1 3 3 2 3 4 3 5 6 9 3 2 5 5 4 6 6 6 6 5 6 8 8 8 8 9 9 9 9 11 8 9 7 7 7 6 6 6 6 5 5
5 3 2 2 2 1 1 1 4 2 3 4 2 2 4 5 5 5 4 5 5 6 5 5 5 7 7 8 9 9 9 8 7 8 7 9 7 5 7 8 8 6 5 3
5 4 3 1 1 5 5 4 3 2 2 2 4 5 5 5 4 5 5 5 5 5 5 4 5 6 6 7 7 8 8 7 8 8 8 7 7 7 6 5 5 5 4 4
7 6 5 4 8 4 4 4 3 2 3 3 4 5 5 4 4 4 4 4 5 5 6 5 5 4 5 6 6 8 8 8 7 8 6 7 7 7 6 6 6 5 5 5
5 7 5 5 3 4 6 7 2 1 2 3 4 5 5 5 4 3 4 4 2 4 5 5 5 6 5 6 6 6 6 7 6 7 7 7 5 5 5 6 5 6 5 6
6 8 5 4 6 6 6 4 4 3 5 5 3 5 3 4 4 3 3 3 3 3 4 5 5 4 5 5 5 5 6 5 6 5 5 5 6 4 2 3 4 4 3 4
7 8 7 7 5 4 6 7 8 6 4 6 6 8 3 5 4 3 4 3 4 4 4 4 4 6 6 5 5 5 5 5 5 3 4 6 5 5 10 9 7 6 6 4
6 4 6 5 5 4 5 7 6 7 7 6 5 5 4 5 4 7 4 3 4 7 6 5 5 5 4 4 4 5 5 5 4 5 3 3 5 5 5 7 10 10 5 7
3 5 5 3 5 2 5 3 3 2 4 6 6 4 5 6 5 4 7 7 6 5 4 5 5 7 5 4 4 3 3 10 4 3 4 2 4 4 4 5 5 5 8 10
6 6 5 2 2 4 2 2 3 6 6 7 6 8 5 7 7 9 7 7 6 5 6 4 5 8 6 4 4 3 4 3 3 3 4 3 3 4 4 4 4 4 5 6
2 3 3 5 7 5 7 7 8 10 7 8 8 9 10 9 7 7 6 5 3 5 6 4 5 6 5 4 4 3 4 12 9 5 2 0 1 2 3 2 3 3 4 5
2 3 2 5 5 5 9 9 11 9 8 9 10 9 9 9 8 6 7 7 7 7 7 5 7 5 4 6 6 4 4 4 11 4 2 2 2 1 3 1 2 2 4 6
5 4 5 7 6 6 6 6 6 7 8 8 7 7 6 6 6 6 5 5 4 4 5 7 7 6 5 5 6 4 4 4 5 4 3 2 3 3 3 1 3 2 3 4
7 7 5 5 5 6 5 6 6 6 6 4 5 6 6 6 5 4 3 3 4 5 6 7 12 8 3 6 9 6 5 5 4 4 4 8 4 2 2 2 3 2 2 4
5 4 4 4 5 5 5 5 5 5 5 3 3 3 4 4 5 5 5 6 6 5 5 6 5 4 5 8 13 2 5 5 6 6 5 5 5 4 4 9 5 3 2 3
4 2 4 4 4 5 3 4 4 3 2 2 0 3 3 3 3 2 3 3 5 7 7 9 5 4 4 8 9 3 4 5 5 5 5 4 4 5 6 5 4 4 3 3
3 2 3 4 4 3 2 3 3 4 4 4 3 3 4 5 5 5 6 7 4 13 6 3 3 9 8 15 5 5 6 7 7 5 5 5 5 5 5 5 5 4 4 4
3 4 5 3 2 2 3 4 3 2 4 4 4 4 4 3 2 2 5 5 5 6 5 3 10 17 17 8 4 5 4 4 3 4 4 6 6 5 5 5 4 4 4 4
5 4 2 1 2 3 4 4 2 3 4 4 4 5 4 3 4 4 4 10 13 11 6 6 10 16 17 3 1 1 1 2 2 3 3 9 2 3 3 4 3 4 4 7
3 2 1 2 3 4 3 2 2 5 5 5 6 5 6 4 4 3 2 4 12 11 5 11 17 17 3 1 2 3 3 4 3 4 4 4 5 4 4 5 4 5 5 5
4 3 2 2 2 1 2 3 2 3 4 3 2 3 3 3 4 6 3 7 6 10 5 3 2 4 5 4 4 5 5 5 7 4 6 4 4 4 4 6 6 7 4 4
3 4 2 3 3 3 2 3 2 2 3 3 4 3 5 6 5 6 8 4 4 5 5 4 3 7 6 6 6 6 6 5 10 5 7 6 6 5 6 6 5 5 4 4
Wind_Direction
223 227 260 293 24 51 29 348 42 6 60 15 23 14 11 9 16 21 24 27 23 21 17 27 8 19 19 16 9 12 11 12 20 9 36 4 29 47 56 49 31 42 96 93
286 263 237 277 41 36 46 343 14 168 115 313 256 60 31 11 6 15 18 16 19 17 15 14 16 12 2 28 353 14 4 25 17 11 5 15 37 31 49 46 26 23 44 82
309 304 301 148 25 354 121 70 290 16 245 325 324 7 29 4 357 7 8 9 9 8 8 4 11 4 0 359 29 16 2 19 13 13 360 10 30 36 38 23 35 20 27 30
292 312 230 171 83 302 315 141 17 340 347 331 330 340 88 16 350 5 5 4 359 358 358 7 360 15 10 6 29 14 8 15 14 12 12 12 20 20 45 350 38 10 5 24
336 304 112 155 33 16 40 326 84 333 346 350 329 275 89 20 355 354 8 9 359 347 334 0 11 5 350 25 31 32 358 1 6 4 7 12 20 18 2 359 23 15 359 354
306 301 313 116 60 38 322 251 66 0 341 350 324 0 101 356 338 17 3 5 356 352 357 5 2 345 359 34 23 28 8 356 19 347 1 20 6 354 1 353 354 14 348 357
291 305 109 70 47 286 31 245 351 19 338 347 342 196 300 328 345 3 0 355 6 346 5 12 11 340 358 27 13 6 358 355 346 351 352 22 4 332 3 3 10 324 337 18
343 295 273 91 275 149 217 310 300 316 338 310 327 320 311 332 359 357 2 353 2 351 350 355 26 2 2 11 355 352 335 355 8 356 2 3 347 353 1 8 357 346 2 43
156 238 190 190 199 217 160 195 275 113 319 350 304 301 328 330 352 347 357 6 354 342 335 350 21 29 14 343 346 344 346 353 357 346 14 360 358 4 349 4 19 17 10 21
56 276 240 222 255 175 182 205 236 167 213 279 269 297 311 330 334 336 344 328 345 346 341 348 1 6 359 359 345 344 344 340 350 351 14 349 6 5 356 6 21 16 17 6
247 281 318 262 204 210 218 191 211 217 198 231 276 273 269 279 280 291 305 317 330 308 312 322 341 341 346 350 351 348 340 341 351 3 357 349 358 337 334 10 5 351 343 335
218 208 170 239 234 179 173 210 217 199 249 239 205 249 260 269 256 261 274 284 297 302 307 303 326 321 321 330 346 339 336 359 337 3 343 4 346 336 357 359 350 344 334 327
213 176 179 212 210 204 201 228 229 210 212 211 240 207 219 238 245 273 281 248 245 254 258 281 291 286 275 296 317 318 327 331 332 335 329 7 339 349 349 343 359 357 353 348
132 104 332 185 234 253 207 240 322 226 231 216 222 226 212 239 284 269 267 260 263 246 247 250 262 262 252 241 254 268 287 299 308 308 318 3 343 338 336 336 346 352 350 337
208 203 192 185 290 271 194 150 225 243 242 256 229 232 197 234 244 251 253 247 245 254 272 258 258 268 268 246 250 249 271 267 284 302 294 300 355 335 336 331 346 336 331 350
123 179 229 229 267 234 219 226 231 249 219 235 227 222 227 223 232 241 248 233 180 253 257 247 248 246 242 207 233 252 254 268 260 230 267 213 294 311 312 333 336 326 330 336
119 316 236 257 242 255 223 225 220 238 234 221 219 218 211 209 216 223 233 225 213 223 234 241 258 255 228 203 205 226 247 264 267 257 232 236 212 254 285 329 309 321 312 316
203 240 251 250 267 272 281 286 282 240 218 225 223 210 210 212 220 235 232 219 229 255 237 235 228 225 217 221 217 212 223 234 243 239 229 219 223 227 241 248 273 284 292 311
217 239 260 270 285 286 278 277 271 280 288 260 230 220 212 221 227 228 233 219 229 246 261 258 253 271 211 246 256 216 231 243 249 235 217 242 249 196 223 228 250 264 294 303
241 249 281 287 292 290 295 295 295 289 275 271 267 212 226 242 244 238 232 235 231 231 255 259 259 233 237 253 270 213 211 224 238 241 234 222 212 212 221 243 238 216 233 260
225 255 282 299 304 308 348 24 3 342 359 86 328 271 270 288 297 287 274 257 256 267 262 258 256 240 249 256 257 214 214 227 233 222 223 225 219 216 216 214 210 210 221 235
197 228 279 288 293 318 14 358 335 323 320 308 290 279 274 272 273 266 246 248 250 271 273 247 250 267 253 251 236 222 230 236 239 226 221 213 208 207 207 206 207 206 213 221
203 218 235 259 274 262 316 302 286 302 301 299 296 291 281 271 268 286 285 292 294 300 272 223 266 268 269 272 238 231 236 258 257 243 247 235 227 209 202 200 203 201 210 216
206 220 226 320 37 314 280 278 242 277 284 280 278 265 263 276 281 270 280 291 298 305 288 270 271 277 281 287 262 190 237 269 262 256 256 270 230 224 214 204 209 211 216 259
148 147 159 213 244 258 256 300 298 281 260 246 246 252 242 230 241 267 258 283 291 295 302 294 288 283 334 334 263 255 244 237 234 242 248 246 239 228 219 217 215 216 224 223
176 204 214 215 215 324 308 311 270 276 281 281 294 310 303 278 259 278 278 276 269 272 281 296 294 281 270 267 250 244 244 246 260 267 270 247 255 258 252 242 234 238 232 215
185 231 195 228 230 221 236 240 267 287 313 309 293 284 276 277 275 280 287 288 284 277 273 266 252 273 270 259 253 252 247 243 255 236 234 239 240 235 232 238 250 249 237 221